TimeEDT,TemperatureF,Dew PointF,Humidity,Sea Level PressureIn,VisibilityMPH,Wind Direction,Wind SpeedMPH,Gust SpeedMPH,PrecipitationIn,Events,Conditions,WindDirDegrees,DateUTC
12:15 AM,73.0,68.0,84,29.98,10.0,SE,5.8,-,N/A,,Unknown,130,2013-10-07 04:15:00
12:35 AM,73.0,68.0,84,29.98,10.0,SE,6.9,-,N/A,,Unknown,140,2013-10-07 04:35:00
12:55 AM,72.9,68.0,85,29.97,10.0,SE,5.8,-,N/A,,Unknown,140,2013-10-07 04:55:00
1:15 AM,73.2,68.7,86,29.97,10.0,SSE,5.8,-,N/A,,Unknown,160,2013-10-07 05:15:00
1:35 AM,73.2,68.9,86,29.97,10.0,SSE,6.9,-,N/A,,Unknown,160,2013-10-07 05:35:00
1:55 AM,72.9,69.3,88,29.97,10.0,SSE,6.9,-,N/A,,Unknown,160,2013-10-07 05:55:00
2:15 AM,72.7,69.8,91,29.97,10.0,SSE,5.8,-,N/A,,Unknown,160,2013-10-07 06:15:00
2:35 AM,72.9,70.2,91,29.97,10.0,SSE,6.9,-,N/A,,Unknown,150,2013-10-07 06:35:00
2:55 AM,72.7,70.3,92,29.96,10.0,SSE,4.6,-,N/A,,Unknown,160,2013-10-07 06:55:00
3:15 AM,72.9,70.7,93,29.95,10.0,SSE,4.6,-,N/A,,Unknown,150,2013-10-07 07:15:00
3:35 AM,73.0,70.9,93,29.94,10.0,SSE,4.6,-,N/A,,Unknown,150,2013-10-07 07:35:00
3:55 AM,73.0,71.4,95,29.94,10.0,SE,5.8,-,N/A,,Unknown,140,2013-10-07 07:55:00
4:15 AM,72.7,71.4,96,29.94,10.0,SSE,4.6,-,N/A,,Unknown,150,2013-10-07 08:15:00
4:35 AM,73.4,72.0,95,29.94,10.0,SSE,6.9,-,N/A,,Unknown,160,2013-10-07 08:35:00
4:55 AM,73.9,72.1,94,29.94,10.0,South,8.1,-,N/A,,Unknown,180,2013-10-07 08:55:00
5:15 AM,73.6,71.8,94,29.93,10.0,SSE,6.9,-,N/A,,Unknown,160,2013-10-07 09:15:00
5:35 AM,73.4,72.1,96,29.93,10.0,SSE,5.8,-,N/A,,Unknown,160,2013-10-07 09:35:00
5:55 AM,73.4,72.5,97,29.94,10.0,South,6.9,-,N/A,,Unknown,170,2013-10-07 09:55:00
6:15 AM,73.4,72.5,97,29.94,10.0,South,8.1,-,N/A,,Unknown,170,2013-10-07 10:15:00
6:35 AM,74.1,73.4,98,29.93,10.0,South,9.2,-,N/A,,Unknown,180,2013-10-07 10:35:00
6:55 AM,74.1,72.9,96,29.93,10.0,South,9.2,-,N/A,,Unknown,170,2013-10-07 10:55:00
7:15 AM,73.6,72.9,98,29.93,10.0,SSE,8.1,-,N/A,,Unknown,160,2013-10-07 11:15:00
7:35 AM,73.4,72.9,98,29.93,10.0,SSE,6.9,-,N/A,,Unknown,160,2013-10-07 11:35:00
7:55 AM,73.6,73.4,99,29.92,10.0,SSE,6.9,-,N/A,,Unknown,150,2013-10-07 11:55:00
8:15 AM,74.5,73.8,98,29.93,10.0,SSE,8.1,-,N/A,,Unknown,160,2013-10-07 12:15:00
8:35 AM,75.4,74.1,96,29.93,10.0,SSE,8.1,-,N/A,,Unknown,160,2013-10-07 12:35:00
8:55 AM,76.6,73.6,90,29.94,10.0,South,10.4,-,N/A,,Unknown,170,2013-10-07 12:55:00
9:15 AM,77.9,72.5,83,29.94,10.0,South,11.5,16.1,N/A,,Unknown,180,2013-10-07 13:15:00
9:35 AM,79.0,71.2,77,29.94,10.0,South,13.8,-,N/A,,Unknown,180,2013-10-07 13:35:00
9:55 AM,80.2,71.2,74,29.94,10.0,South,12.7,18.4,N/A,,Unknown,190,2013-10-07 13:55:00
10:15 AM,81.5,70.0,68,29.94,10.0,SSW,15.0,21.9,N/A,,Unknown,200,2013-10-07 14:15:00
10:35 AM,81.7,69.1,65,29.94,10.0,South,12.7,23.0,N/A,,Unknown,190,2013-10-07 14:35:00
10:55 AM,81.3,68.9,66,29.93,10.0,South,13.8,-,N/A,,Unknown,190,2013-10-07 14:55:00
11:15 AM,82.0,68.9,64,29.93,10.0,South,18.4,21.9,N/A,,Unknown,190,2013-10-07 15:15:00
11:35 AM,83.1,69.1,62,29.92,10.0,South,15.0,21.9,N/A,,Unknown,190,2013-10-07 15:35:00
11:55 AM,84.7,67.8,57,29.91,10.0,South,17.3,24.2,N/A,,Unknown,190,2013-10-07 15:55:00
12:15 PM,85.5,66.7,53,29.91,10.0,South,20.7,-,N/A,,Unknown,180,2013-10-07 16:15:00
12:35 PM,84.6,67.5,56,29.89,10.0,South,17.3,21.9,N/A,,Unknown,190,2013-10-07 16:35:00
12:55 PM,84.9,68.5,58,29.88,10.0,South,17.3,21.9,N/A,,Unknown,180,2013-10-07 16:55:00
1:15 PM,82.9,69.1,63,29.88,10.0,South,13.8,18.4,N/A,,Unknown,180,2013-10-07 17:15:00
1:35 PM,84.6,68.0,57,29.87,10.0,South,18.4,24.2,N/A,,Unknown,190,2013-10-07 17:35:00
1:55 PM,84.4,66.7,55,29.87,10.0,South,15.0,21.9,N/A,,Unknown,190,2013-10-07 17:55:00
2:15 PM,84.2,66.7,56,29.87,10.0,South,12.7,23.0,N/A,,Unknown,190,2013-10-07 18:15:00
2:35 PM,84.6,66.7,55,29.87,10.0,South,12.7,17.3,N/A,,Unknown,190,2013-10-07 18:35:00
2:55 PM,83.3,66.2,56,29.86,10.0,South,12.7,-,N/A,,Unknown,180,2013-10-07 18:55:00
3:15 PM,82.8,66.9,59,29.86,10.0,South,16.1,-,N/A,,Unknown,190,2013-10-07 19:15:00
3:35 PM,82.8,67.3,59,29.86,10.0,SSW,12.7,-,N/A,,Unknown,200,2013-10-07 19:35:00
3:55 PM,82.4,67.5,60,29.87,10.0,SSW,11.5,-,N/A,,Unknown,200,2013-10-07 19:55:00
4:15 PM,82.6,67.3,60,29.87,10.0,SW,12.7,-,N/A,,Unknown,220,2013-10-07 20:15:00
4:35 PM,81.9,67.6,62,29.87,10.0,SW,10.4,-,N/A,,Unknown,220,2013-10-07 20:35:00
4:55 PM,81.5,68.0,63,29.87,10.0,SW,9.2,16.1,N/A,,Unknown,220,2013-10-07 20:55:00
5:15 PM,80.8,68.0,65,29.88,10.0,West,6.9,-,N/A,,Unknown,280,2013-10-07 21:15:00
5:35 PM,77.4,70.3,79,29.88,10.0,WNW,4.6,-,N/A,,Unknown,290,2013-10-07 21:35:00
5:55 PM,76.5,71.4,84,29.89,5.0,SW,4.6,-,N/A,Rain,Light Rain,220,2013-10-07 21:55:00
6:15 PM,75.6,71.6,87,29.88,10.0,Calm,Calm,-,N/A,,Unknown,0,2013-10-07 22:15:00
6:35 PM,74.3,72.0,92,29.88,10.0,South,3.5,-,N/A,,Unknown,180,2013-10-07 22:35:00
6:55 PM,74.3,71.2,90,29.90,10.0,West,3.5,-,N/A,,Light Drizzle,270,2013-10-07 22:55:00
7:15 PM,73.9,71.2,91,29.90,10.0,Calm,Calm,-,N/A,Rain,Light Rain,0,2013-10-07 23:15:00
7:35 PM,73.2,71.6,95,29.91,10.0,Calm,Calm,-,N/A,,Drizzle,0,2013-10-07 23:35:00
7:55 PM,73.0,72.1,97,29.91,7.0,NNE,6.9,-,N/A,,Unknown,20,2013-10-07 23:55:00
8:15 PM,72.7,72.0,98,29.92,7.0,North,5.8,-,N/A,,Unknown,360,2013-10-08 00:15:00
8:35 PM,72.5,72.3,99,29.92,10.0,North,5.8,-,N/A,,Unknown,10,2013-10-08 00:35:00
8:55 PM,72.0,72.0,100,29.93,10.0,NNE,3.5,-,N/A,,Unknown,30,2013-10-08 00:55:00
9:15 PM,72.0,72.0,100,29.93,10.0,NE,4.6,-,N/A,,Unknown,50,2013-10-08 01:15:00
9:35 PM,71.6,71.6,100,29.94,7.0,NNE,3.5,-,N/A,,Unknown,20,2013-10-08 01:35:00
9:55 PM,71.6,71.6,100,29.94,7.0,NE,3.5,-,N/A,,Unknown,40,2013-10-08 01:55:00
10:15 PM,71.4,71.4,100,29.94,7.0,Calm,Calm,-,0.01,Rain,Light Rain,0,2013-10-08 02:15:00
10:35 PM,71.2,71.2,100,29.95,7.0,Calm,Calm,-,0.01,,Unknown,0,2013-10-08 02:35:00
10:55 PM,71.1,71.1,100,29.95,7.0,NNE,6.9,-,0.01,,Unknown,20,2013-10-08 02:55:00
11:15 PM,70.9,70.7,99,29.95,10.0,North,6.9,-,N/A,,Light Drizzle,10,2013-10-08 03:15:00
11:35 PM,70.7,70.3,99,29.96,5.0,North,3.5,-,0.03,Rain,Rain,10,2013-10-08 03:35:00
11:55 PM,69.1,68.4,98,29.97,7.0,North,9.2,18.4,0.10,Rain,Rain,10,2013-10-08 03:55:00